www.pogodaiklimat.ru

Погода и климат >> Архив погоды >> Парагвай >> Puerto Casado


ПОГОДА в Puerto Casado

  • Прогноз погоды в Puerto Casado
  • Монитор погоды в Puerto Casado
  • Климат города

АРХИВ ПОГОДЫ в Puerto Casado

Время (UTC), дата Ветер
(напр.,м/с)
 
Видим.   Явления Облачность Т
(С)
Тd
(С)
f
(%)
Тe
(С)
Тes
(С)
Комфортность P
(гПа)
Po
(гПа)
Тmin
(С)
Tmax
(С)
R
(мм)
R24
(мм)
S
(см)
15 14.11 С 1 20 км {гроза, морось} 9/6 300 м
[Sc Ac As]
+28.0 +23.6 77 +38 +43 очень
душно
1008.2 999.3 1
18 14.11 С 1 20 км 9/6 300 м
[Sc Ac As]
+28.6 +24.9 80 +41 +45 опасность
перегрева
1008.6 999.7 1
21 14.11 Ю 2 10 км слабая морось 10/6 300 м
[Sc Ac As]
+24.6 +22.2 87 +32 +32 очень
душно
1007.6 998.6 0.5
00 15.11 Ю 1 20 км 10/8 300 м
[Sc Ac As]
+23.6 +21.2 86 +30 +30 очень
душно
1008.9 999.9 +31.4 0.5
03 15.11 Ю 1 20 км 9/9 300 м
[Sc]
+23.0 +19.9 83 +30 +30 очень
душно
1010.0 1000.9
06 15.11 штиль 0 20 км 10/10 300 м
[Sc]
+23.0 +21.5 91 +31 +31 очень
душно
1010.4 1001.3
09 15.11 Ю 1 20 км 10/6 300 м
[Sc Ac As]
+23.2 +22.4 95 +32 +32 очень
душно
1010.6 1001.5
12 15.11 ЮВ 1 20 км 6/1 300 м
[Sc Cs]
+25.0 +22.0 83 +32 +39 очень
душно
1010.7 1001.7 +23.0 1
15 15.11 В 1 20 км 4/0
[Ci]
+28.0 +20.4 63 +34 +57 опасность
солнечного
удара
1010.9 1001.9
18 15.11 В 1 20 км 8/4 450 м
[Sc Ac As]
+31.0 +20.5 54 +38 +44 очень
душно
1009.4 1000.6
21 15.11 штиль 0 20 км 8/4 450 м
[Sc Ac As]
+30.0 +22.7 65 +40 +41 очень
душно
1008.4 999.6
00 16.11 штиль 0 20 км 4/0
[Ci]
+28.8 +20.0 59 +35 +35 очень
душно
1010.4 1001.6 +31.0
03 16.11 штиль 0 20 км ясно +28.0 +22.1 70 +36 +36 очень
душно
1010.6 1001.8
09 16.11 штиль 0 20 км 5/0 2000 м
[Ac As]
+25.0 +22.0 83 +32 +32 очень
душно
1010.6 1001.6
12 16.11 В 1 20 км 4/0 2000 м
[Ac trans]
+29.0 +21.6 64 +37 +44 очень
душно
1011.5 1002.6 +25.0
15 16.11 В 2 20 км 5/3 800 м
[Cu hum Ac trans]
+31.6 +21.9 56 +40 +53 опасность
солнечного
удара
1011.0 1002.2
18 16.11 В 2 20 км 5/3 800 м
[Cu hum Ci]
+35.0 +21.9 47 +44 +55 опасность
перегрева
1008.8 1000.1
21 16.11 В 2 20 км 5/3 800 м
[Cu med, cong Ac As]
+34.0 +20.6 46 +41 +42 опасность
перегрева
1006.6 997.9
00 17.11 штиль 0 20 км 6/0 2000 м
[Ac As]
+31.0 +22.2 60 +40 +40 очень
душно
1007.9 999.1 +35.0
09 17.11 В 1 20 км 5/0 2000 м
[Ac As]
+24.8 +20.5 77 +31 +31 очень
душно
1008.6 999.6
12 17.11 В 1 20 км 3/0 2000 м
[Ac As]
+28.0 +22.1 70 +36 +43 очень
душно
1008.7 999.8 +24.8
18 17.11 С 1 20 км 8/5 800 м
[Cu hum Ci]
+33.6 +22.6 53 +43 +52 опасность
перегрева
1006.8 998.1
21 17.11 С 2 20 км 4/0
[Ci]
+33.0 +22.9 55 +43 +45 опасность
перегрева
1005.6 996.9
00 18.11 штиль 0 20 км 3/0
[Ci]
+30.8 +20.7 55 +38 +38 очень
душно
1006.9 998.1 +34.0
03 18.11 В 1 20 км ясно +29.6 +22.9 67 +39 +39 очень
душно
1006.9 998.1
06 18.11 штиль 0 20 км 3/0
[Ci fib]
+28.0 +23.3 76 +38 +38 очень
душно
1006.1 997.2
09 18.11 С 2 20 км 4/0 2000 м
[Ac As]
+27.0 +22.6 77 +36 +36 очень
душно
1007.2 998.3
12 18.11 С 2 20 км 9/3 800 м
[Cu med, cong Ac As]
+28.2 +23.5 76 +38 +41 очень
душно
1007.9 999.0 +27.0
15 18.11 ЮЗ 5 10 км гроза, ливневой дождь 10/6 800 м
[Cb cap Ac As]
+26.2 +23.0 83 +35 +36 очень
душно
1009.6 1000.6 10
18 18.11 Ю 1 10 км гроза, ливневой дождь 10/6 300 м
[Cb cap Ac As]
+24.0 +22.5 91 +31 +34 очень
душно
1011.0 1002.0 22
21 18.11 Ю 2 10 км слабая морось {гроза} 10/6 300 м
[Sc Ac As]
+20.6 +19.4 93 +25 +26 комфорт 1011.4 1002.3 30
00 19.11 Ю 2 20 км {гроза} 10/6 300 м
[Sc Ac As]
+20.0 +18.4 91 +24 +24 комфорт 1012.4 1003.3 +30.8 60
03 19.11 Ю 1 20 км 10/6 300 м
[Sc Ac As]
+20.4 +18.1 87 +25 +25 комфорт 1013.4 1004.3
06 19.11 Ю 1 20 км 10/6 300 м
[Sc Ac As]
+19.0 +17.3 90 +22 +22 комфорт 1013.5 1004.3
09 19.11 штиль 0 20 км 10/6 300 м
[Sc Ac As]
+19.8 +18.3 91 +22 +22 комфорт 1013.6 1004.4
12 19.11 Ю 2 20 км 8/4 300 м
[Sc Ci fib]
+23.4 +21.3 88 +31 +36 очень
душно
1014.5 1005.4 +19.0 62
15 19.11 В 1 20 км 8/4 300 м
[Sc Ci fib]
+26.4 +21.3 74 +34 +46 очень
душно
1015.3 1006.3
18 19.11 СВ 1 20 км 8/4 300 м
[Sc Ci]
+28.6 +20.1 60 +35 +45 очень
душно
1012.9 1004.0
21 19.11 ЮВ 1 20 км 4/4 300 м
[Sc]
+29.0 +21.6 64 +37 +39 очень
душно
1011.7 1002.8
00 20.11 Ю 1 20 км ясно +25.0 +22.0 83 +32 +32 очень
душно
1011.8 1002.8 +30.0
06 20.11 Ю 1 20 км 4/0
[Ci fib]
+23.6 +19.5 78 +29 +29 душно 1013.2 1004.2
09 20.11 Ю 1 20 км ясно +21.6 +20.1 91 +27 +27 душно 1012.8 1003.7
12 20.11 штиль 0 20 км ясно +27.0 +22.6 77 +36 +46 очень
душно
1013.2 1004.7 +21.6
15 20.11 штиль 0 20 км 8/3 800 м
[Cu hum Cs]
+30.0 +22.7 65 +40 +57 опасность
солнечного
удара
1011.6 1002.8
18 20.11 СВ 1 20 км 8/4 800 м
[Cu hum Ci]
+32.0 +19.9 49 +38 +48 очень
душно
1010.1 1001.3
21 20.11 штиль 0 20 км 6/3 800 м
[Cu med, cong Ci]
+32.6 +21.4 52 +41 +43 опасность
перегрева
1010.0 1001.2
00 21.11 штиль 0 20 км 4/0
[Ci fib]
+29.0 +21.6 64 +37 +37 очень
душно
1011.2 1002.3 +34.0
03 21.11 штиль 0 20 км 4/0
[Ci fib]
+27.6 +20.6 66 +34 +34 очень
душно
1011.2 1002.3
06 21.11 штиль 0 20 км ясно +26.0 +21.7 77 +33 +33 очень
душно
1012.2 1003.2
09 21.11 штиль 0 20 км 4/0
[Ac As]
+23.6 +19.5 78 +29 +29 душно 1012.7 1003.6
12 21.11 В 1 20 км 5/0
[Ci]
+28.0 +20.4 63 +34 +43 очень
душно
1012.5 1003.6 +23.4

 

Местоположение метеостанции Puerto Casado (Парагвай): широта -22.28 долгота -57.86 высота над уровнем моря 87 м.

В архиве по умолчанию представлена погода в Puerto Casado за последнюю неделю. Архивные данные за месяц целиком и за предыдущие месяцы, начиная с января 2011 года, Вы можете получить, выбрав интересующий диапазон дат из раскрывающегося списка и нажав кнопку "Ввод!".


*Определитесь, кто Вы:
робот инопланетянин человек

Внимание! Время в таблицах - всемирное. Для получения местного времени необходимо прибавить поправку, которая в Puerto Casado равна -4 ч.

Смотрите также архив погоды в соседних городах и на ближайших метеорологических станциях:

Погода в Concepcion (Парагвай) (138 км)
Погода в Pozo Colorado (Парагвай) (162 км)
Погода в San Pedro (Парагвай) (213 км)
Погода в Pedro Juan Caballer (Парагвай) (222 км)
Погода в Ponta Pora (Бразилия) (224 км)
Погода в Ponta Pora (Бразилия) (241 км)
Погода в Miranda (Бразилия) (256 км)
Погода в Amambai (Бразилия) (272 км)
Погода в Mariscal Estigar (Парагвай) (284 км)
Погода в Maracaju (Бразилия) (286 км)

Пояснения к столбцам:

Ветер - указаны скорость ветра в м/с - средняя за 10 мин, порывы в срок и между сроками (в фигурных скобках) и направление, откуда дует ветер: С - северный, СВ - северо-восточный, В - восточный, ЮВ - юго-восточный, Ю - южный, ЮЗ - юго-западный, З - западный, СЗ - северо-западный.
Видимость - горизонтальная дальность видимости в метрах или километрах. При видимости от 1 до 10 км при отсутствии осадков обычно наблюдается дымка, при ухудшении видимости до 1 км и менее - туман. В сухую погоду видимость может ухудшаться дымом, пылью или мглою.
Явления - указаны атмосферные явления, наблюдавшиеся в срок или в последний час перед сроком; фигурными скобками обозначены явления, наблюдавшиеся между сроками (за 1-3 часа до срока); квадратными скобками обозначены град или гололедные отложения с указанием их диаметра в мм.
Облачность - указаны через наклонную черту общая и нижняя облачность в баллах и высота нижней границы облаков в метрах; квадратными скобками обозначены формы облаков: Ci - перистые, Cs - перисто-слоистые, Cc - перисто-кучевые, Ac - высококучевые, As - высокослоистые, Sc - слоисто-кучевые, Ns - слоисто-дождевые, Cu - кучевые, Cb - кучево-дождевые. Подробнее классификацию облаков см. в Атласе облаков (PDF).
T - Температура воздуха - температура, измеренная на высоте 2 м над землей.
Td - Температура точки росы - температура, при понижении до которой содержащийся в воздухе водяной пар достигнет насыщения.
f - Относительная влажность воздуха - влажноcть воздуха, измеренная на высоте 2 м над землей.
Te - Эффективная температура - температура, которую ощущает одетый по сезону человек в тени. Характеристика душности погоды. При расчете учитывается влияние влажности воздуха и скорости ветра на теплоощущения человека.
Tes - Эффективная температура на солнце - температура, которую ощущает человек, с поправкой на солнечный нагрев. Характеристика знойности погоды. Зависит от высоты солнца над горизонтом, облачности и скорости ветра. Ночью, в пасмурную погоду, а также при ветре 12 м/с и более поправка равна нулю.
P - Атмосферное давление - приведенное к уровню моря атмосферное давление.
Po - Атмосферное давление - измеренное на уровне метеостанции атмосферное давление.
Tmin - Минимальная температура - минимум температуры воздуха на высоте 2 м над землей.
Tmax - Максимальная температура - максимум температуры воздуха на высоте 2 м над землей.
R - Количество осадков - Количество выпавших осадков за период времени, мм. При наведении курсора мыши на число - период времени, за который выпало указанное количество осадков.
R24 - Количество осадков - Количество выпавших осадков за 24 часа, мм.
S - Снежный покров - Высота снежного покрова, см. При наведении курсора мыши на число - состояние снежного покрова и степень покрытия местности в баллах.